TimeAEST,TemperatureF,Dew PointF,Humidity,Sea Level PressureIn,VisibilityMPH,Wind Direction,Wind SpeedMPH,Gust SpeedMPH,PrecipitationIn,Events,Conditions,WindDirDegrees,DateUTC
12:00 AM,75,71,82,30.07,,East,16.1,,,,,100,2013-10-18 14:00:00
12:00 AM,75.2,69.8,83,30.06,-9999.0,East,16.1,-,N/A,,Unknown,100,2013-10-18 14:00:00
12:30 AM,75.2,69.8,83,30.06,-9999.0,East,16.1,-,N/A,,Unknown,90,2013-10-18 14:30:00
1:00 AM,75.2,69.8,83,30.04,-9999.0,ESE,15.0,-,N/A,,Unknown,110,2013-10-18 15:00:00
1:30 AM,75.2,69.8,83,30.04,-9999.0,East,16.1,-,N/A,,Unknown,100,2013-10-18 15:30:00
2:00 AM,75.2,69.8,83,30.04,-9999.0,East,15.0,-,N/A,,Unknown,100,2013-10-18 16:00:00
2:30 AM,75.2,69.8,83,30.04,-9999.0,East,17.3,-,N/A,,Unknown,90,2013-10-18 16:30:00
3:00 AM,75,71,83,30.03,,East,15.0,,,,,100,2013-10-18 17:00:00
3:00 AM,75.2,71.6,89,30.04,-9999.0,East,15.0,-,N/A,,Unknown,100,2013-10-18 17:00:00
3:30 AM,75.2,71.6,89,30.04,-9999.0,East,13.8,-,N/A,,Unknown,100,2013-10-18 17:30:00
4:00 AM,75.2,71.6,89,30.04,-9999.0,East,15.0,-,N/A,,Unknown,100,2013-10-18 18:00:00
4:30 AM,75.2,71.6,89,30.04,-9999.0,East,15.0,-,N/A,,Unknown,100,2013-10-18 18:30:00
5:00 AM,75.2,71.6,89,30.04,-9999.0,ESE,15.0,-,N/A,,Unknown,110,2013-10-18 19:00:00
5:30 AM,75.2,69.8,83,30.04,-9999.0,East,17.3,-,N/A,,Unknown,90,2013-10-18 19:30:00
6:00 AM,76,71,79,30.06,,East,17.3,,,,,100,2013-10-18 20:00:00
6:00 AM,75.2,71.6,89,30.06,-9999.0,East,17.3,-,N/A,,Unknown,100,2013-10-18 20:00:00
6:30 AM,77.0,69.8,78,30.06,-9999.0,East,17.3,-,N/A,,Unknown,100,2013-10-18 20:30:00
7:00 AM,77.0,69.8,78,30.06,-9999.0,ESE,18.4,-,N/A,,Unknown,110,2013-10-18 21:00:00
7:30 AM,78.8,71.6,78,30.09,-9999.0,East,17.3,-,N/A,,Unknown,100,2013-10-18 21:30:00
8:00 AM,77.0,69.8,78,30.09,-9999.0,ESE,16.1,-,N/A,,Unknown,110,2013-10-18 22:00:00
8:30 AM,78.8,71.6,78,30.09,-9999.0,East,17.3,-,N/A,,Unknown,100,2013-10-18 22:30:00
9:00 AM,80,70,65,30.10,,East,15.0,,,,,100,2013-10-18 23:00:00
9:00 AM,80.6,69.8,70,30.09,-9999.0,East,15.0,-,N/A,,Unknown,100,2013-10-18 23:00:00
9:30 AM,80.6,71.6,74,30.09,-9999.0,East,15.0,-,N/A,,Unknown,100,2013-10-18 23:30:00
10:00 AM,80.6,71.6,74,30.09,-9999.0,East,15.0,-,N/A,,Unknown,100,2013-10-19 00:00:00
10:30 AM,80.6,69.8,70,30.09,-9999.0,East,17.3,-,N/A,,Unknown,100,2013-10-19 00:30:00
11:00 AM,80.6,71.6,74,30.09,-9999.0,East,17.3,-,N/A,,Unknown,100,2013-10-19 01:00:00
11:30 AM,80.6,71.6,74,30.06,-9999.0,East,20.7,-,N/A,,Unknown,100,2013-10-19 01:30:00
12:00 PM,80,71,68,30.07,,East,19.6,,,,,100,2013-10-19 02:00:00
12:00 PM,80.6,71.6,74,30.06,-9999.0,East,19.6,-,N/A,,Unknown,100,2013-10-19 02:00:00
12:30 PM,80.6,71.6,74,30.06,-9999.0,East,19.6,-,N/A,,Unknown,100,2013-10-19 02:30:00
1:00 PM,80.6,71.6,74,30.04,-9999.0,East,20.7,-,N/A,,Unknown,100,2013-10-19 03:00:00
1:30 PM,80.6,71.6,74,30.04,-9999.0,ESE,20.7,-,N/A,,Unknown,110,2013-10-19 03:30:00
2:00 PM,78.8,69.8,74,30.04,-9999.0,ESE,21.9,-,N/A,,Unknown,110,2013-10-19 04:00:00
2:30 PM,78.8,71.6,78,30.01,-9999.0,East,21.9,-,N/A,,Unknown,100,2013-10-19 04:30:00
3:00 PM,79,70,67,30.01,,East,23.0,,,,,100,2013-10-19 05:00:00
3:00 PM,78.8,69.8,74,30.01,-9999.0,East,23.0,-,N/A,,Unknown,100,2013-10-19 05:00:00
3:30 PM,78.8,73.4,83,30.01,-9999.0,East,21.9,-,N/A,,Unknown,100,2013-10-19 05:30:00
4:00 PM,77.0,69.8,78,30.01,-9999.0,East,24.2,-,N/A,,Unknown,100,2013-10-19 06:00:00
4:30 PM,77.0,71.6,83,30.01,-9999.0,East,23.0,-,N/A,,Unknown,100,2013-10-19 06:30:00
5:00 PM,77.0,71.6,83,30.01,-9999.0,East,23.0,-,N/A,,Unknown,100,2013-10-19 07:00:00
6:00 PM,76,70,78,30.04,,East,25.3,,,,,100,2013-10-19 08:00:00
6:00 PM,75.2,69.8,83,30.04,-9999.0,East,25.3,-,N/A,,Unknown,100,2013-10-19 08:00:00
6:30 PM,75.2,69.8,83,30.04,-9999.0,East,25.3,-,N/A,,Unknown,100,2013-10-19 08:30:00
7:00 PM,75.2,69.8,83,30.06,-9999.0,East,27.6,-,N/A,,Unknown,100,2013-10-19 09:00:00
7:30 PM,75.2,69.8,83,30.06,-9999.0,East,27.6,-,N/A,,Unknown,100,2013-10-19 09:30:00
8:00 PM,75.2,68.0,78,30.06,-9999.0,East,27.6,-,N/A,,Unknown,100,2013-10-19 10:00:00
8:30 PM,75.2,69.8,83,30.09,-9999.0,ESE,26.5,-,N/A,,Unknown,110,2013-10-19 10:30:00
9:00 PM,75,70,79,30.09,,ESE,26.5,,,,,110,2013-10-19 11:00:00
9:00 PM,75.2,69.8,83,30.09,-9999.0,ESE,26.5,-,N/A,,Unknown,110,2013-10-19 11:00:00
9:30 PM,75.2,69.8,83,30.09,-9999.0,East,26.5,-,N/A,,Unknown,100,2013-10-19 11:30:00
10:00 PM,75.2,69.8,83,30.09,-9999.0,ESE,26.5,-,N/A,,Unknown,110,2013-10-19 12:00:00
10:30 PM,75.2,69.8,83,30.09,-9999.0,ESE,24.2,-,N/A,,Unknown,110,2013-10-19 12:30:00
11:00 PM,75.2,69.8,83,30.09,-9999.0,East,25.3,-,N/A,,Unknown,100,2013-10-19 13:00:00
11:30 PM,75.2,69.8,83,30.06,-9999.0,ESE,25.3,-,N/A,,Unknown,110,2013-10-19 13:30:00